Stations météo

réclame
Mon MeteoGroup
Hoorn-A, Pays-Bas (6212): Température de l'air & dewpoint: 18.01.2018 10:00:00 - 24.01.2018 10:00:00 (CET)Hoorn-A, Pays-Bas (6212): Vitesse du vent & gusts: 18.01.2018 10:00:00 - 24.01.2018 10:00:00 (CET)Hoorn-A, Pays-Bas (6212): Direction du vent: 18.01.2018 10:00:00 - 24.01.2018 10:00:00 (CET)Hoorn-A, Pays-Bas (6212): reduced air pressure: 18.01.2018 10:00:00 - 24.01.2018 10:00:00 (CET)Hoorn-A, Pays-Bas (6212): visibility: 18.01.2018 10:00:00 - 24.01.2018 10:00:00 (CET)
Date & Time tt [°C] td [°C] ff [km/h] ff [knt] fx [km/h] fx [knt] dd ppp [hPa] vv [km]
24.01.2018 10:00:00 10,2 8,8 68 37 83 45 SSE 1006,5 13
24.01.2018 09:00:00 9,6 8,6 61 33 79 43 S 1007,3 10
24.01.2018 08:00:00 9,2 8,5 54 29 72 39 SSE 1008,6 8
24.01.2018 07:00:00 9,4 8,6 61 33 76 41 S 1009,1 10
24.01.2018 06:00:00 9,0 8,4 58 31 65 35 S 1009,9 6
24.01.2018 05:00:00 8,8 7,8 50 27 61 33 S 1010,8 9
24.01.2018 04:00:00 8,9 7,8 43 23 54 29 S 1011,7 10
24.01.2018 03:00:00 9,0 8,0 43 23 54 29 S 1012,4 12
24.01.2018 02:00:00 9,3 8,3 47 25 58 31 S 1012,6 11
24.01.2018 01:00:00 9,3 8,4 50 27 58 31 S 1012,4 10
24.01.2018 00:00:00 9,2 8,4 47 25 58 31 S 1012,3 10
23.01.2018 23:00:00 9,3 8,5 50 27 65 35 S 1012,1 9
23.01.2018 22:00:00 9,1 8,4 50 27 65 35 S 1011,7 8
23.01.2018 21:00:00 9,2 8,4 58 31 72 39 S 1011,7 9
23.01.2018 20:00:00 8,9 8,4 58 31 68 37 S 1011,6 3,3
23.01.2018 19:00:00 8,7 8,2 61 33 72 39 S 1011,3 6
23.01.2018 18:00:00 8,3 7,8 65 35 65 35 S 1012,1 4,7
23.01.2018 17:00:00 7,7 7,4 59 32 61 33 S 1012,7 1,1
23.01.2018 16:00:00 8,1 6,7 54 29 72 39 S 1012,8 10
23.01.2018 15:00:00 8,0 6,2 54 29 65 35 SSE 1013,0 13
23.01.2018 14:00:00 7,7 6,0 54 29 61 33 SSE 1013,8 10
23.01.2018 13:00:00 7,4 6,4 50 27 58 31 SSE 1014,8 5
23.01.2018 12:00:00 7,6 6,0 54 29 54 29 SSE 1016,0 10
23.01.2018 11:00:00 7,5 5,7 46 25 50 27 S 1016,7 10
23.01.2018 10:00:00 7,9 5,7 40 21 - - S 1016,8 20
23.01.2018 09:00:00 7,5 5,6 29 16 36 19 S 1017,1 19
23.01.2018 08:00:00 7,7 5,2 32 18 36 19 S 1017,1 23
23.01.2018 07:00:00 7,5 4,9 25 14 29 16 S 1017,0 28
23.01.2018 06:00:00 7,4 4,7 29 16 36 19 SSW 1017,6 26
23.01.2018 05:00:00 7,4 5,0 22 12 29 16 WSW 1017,8 21
23.01.2018 04:00:00 7,4 4,9 25 14 - - SSW 1017,6 19
23.01.2018 03:00:00 7,4 4,4 25 14 36 19 SW 1017,3 24
23.01.2018 02:00:00 7,3 4,5 25 14 36 19 SW 1016,9 22
23.01.2018 01:00:00 7,4 4,6 32 18 47 25 W 1016,8 22
23.01.2018 00:00:00 7,6 4,9 36 19 47 25 W 1016,1 19
22.01.2018 23:00:00 7,8 5,0 43 23 54 29 W 1015,2 19
22.01.2018 22:00:00 7,9 4,9 43 23 - - W 1014,5 18
22.01.2018 21:00:00 7,7 5,2 40 21 47 25 W 1013,7 15
22.01.2018 20:00:00 7,6 5,0 40 21 47 25 W 1013,2 15
22.01.2018 19:00:00 7,5 5,1 36 19 43 23 W 1012,3 14
22.01.2018 18:00:00 7,5 5,0 48 26 47 25 WNW 1011,3 10
22.01.2018 17:00:00 7,4 4,9 36 19 43 23 WNW 1010,4 13
22.01.2018 16:00:00 7,4 5,0 36 19 43 23 WNW 1009,3 14
22.01.2018 15:00:00 7,4 4,9 36 19 40 21 WNW 1007,8 13
22.01.2018 14:00:00 7,4 5,0 32 18 40 21 WNW 1007,3 13
22.01.2018 13:00:00 7,4 4,9 32 18 43 23 WNW 1006,9 14
22.01.2018 12:00:00 7,4 5,0 36 19 43 23 WNW 1006,5 15
22.01.2018 11:00:00 7,5 5,0 32 18 43 23 W 1005,9 16
22.01.2018 10:00:00 7,5 5,1 36 19 - - W 1005,2 17
22.01.2018 09:00:00 7,5 5,1 42 23 43 23 WNW 1004,9 10
22.01.2018 08:00:00 7,4 5,0 40 21 50 27 WNW 1003,2 18
22.01.2018 07:00:00 7,2 5,4 36 19 47 25 WNW 1003,0 15
22.01.2018 06:00:00 6,9 5,5 32 18 40 21 WNW 1002,7 16
22.01.2018 05:00:00 6,9 6,2 29 16 43 23 W 1002,6 11
22.01.2018 04:00:00 5,1 4,4 36 19 47 25 S 1002,5 4,2
22.01.2018 03:00:00 4,6 3,6 40 21 47 25 S 1003,5 4,2
22.01.2018 02:00:00 4,0 2,8 50 27 54 29 S 1004,4 4,1
22.01.2018 01:00:00 3,8 2,3 47 25 58 31 SSE 1004,9 5
22.01.2018 00:00:00 3,7 1,8 47 25 58 31 SSE 1006,4 -
21.01.2018 23:00:00 4,2 1,8 43 23 50 27 SSE 1007,7 13
21.01.2018 22:00:00 4,3 2,0 40 21 47 25 SSE 1008,3 11
21.01.2018 21:00:00 4,1 0,2 43 23 50 27 S 1010,0 11
21.01.2018 20:00:00 5,5 1,4 36 19 43 23 S 1011,2 40
21.01.2018 19:00:00 5,7 2,2 32 18 40 21 S 1012,1 35
21.01.2018 18:00:00 5,6 1,9 29 16 36 19 S 1012,3 40
21.01.2018 17:00:00 5,8 0,3 22 12 29 16 S 1013,2 40
21.01.2018 16:00:00 5,9 2,0 16 9 - - S 1013,8 10
21.01.2018 15:00:00 5,8 1,6 14 8 18 10 S 1014,5 46
21.01.2018 14:00:00 5,9 0,1 11 6 14 8 S 1014,7 50
21.01.2018 13:00:00 6,1 0,0 11 6 14 8 SW 1015,0 45
21.01.2018 12:00:00 5,8 -0,3 11 6 18 10 WNW 1014,7 10
21.01.2018 11:00:00 5,8 0,6 16 9 22 12 NW 1014,6 10
21.01.2018 10:00:00 5,8 0,4 18 10 22 12 NW 1014,1 45
21.01.2018 09:00:00 5,6 -0,1 18 10 25 14 NW 1013,5 44
21.01.2018 08:00:00 5,6 -0,4 25 14 32 18 NW 1012,8 49
21.01.2018 07:00:00 5,6 0,0 29 16 40 21 NW 1011,9 49
21.01.2018 06:00:00 5,6 -0,5 36 19 43 23 NW 1010,9 41
21.01.2018 05:00:00 5,5 0,3 46 25 43 23 NW 1010,2 10
21.01.2018 04:00:00 5,3 0,9 36 19 50 27 NW 1009,2 46
21.01.2018 03:00:00 5,2 0,5 40 21 54 29 NW 1008,5 47
21.01.2018 02:00:00 5,2 0,8 32 18 58 31 NW 1007,2 38
21.01.2018 01:00:00 5,4 -0,1 36 19 50 27 NW 1006,0 47
21.01.2018 00:00:00 5,6 0,5 36 19 43 23 NW 1004,8 47
20.01.2018 23:00:00 5,6 0,2 32 18 50 27 NW 1004,1 49
20.01.2018 22:00:00 6,0 1,0 32 18 - - NW 1002,9 34
20.01.2018 21:00:00 6,0 2,1 29 16 32 18 NW 1001,8 10
20.01.2018 20:00:00 5,6 1,6 22 12 25 14 NW 1001,1 31
20.01.2018 19:00:00 5,5 1,7 22 12 25 14 NW 1000,4 27
20.01.2018 18:00:00 5,8 1,4 18 10 22 12 NW 999,7 31
20.01.2018 17:00:00 5,6 3,2 7 4 18 10 WSW 999,3 33
20.01.2018 16:00:00 5,9 2,2 14 8 - - S 999,0 32
20.01.2018 15:00:00 6,0 1,8 11 6 22 12 SSW 998,9 30
20.01.2018 14:00:00 5,7 3,0 18 10 29 16 SSE 999,3 22
20.01.2018 13:00:00 5,9 1,2 18 10 25 14 S 1000,0 32
20.01.2018 12:00:00 5,8 1,4 24 13 25 14 S 1001,3 10
20.01.2018 11:00:00 5,5 1,2 18 10 25 14 S 1001,9 34
20.01.2018 10:00:00 5,3 1,4 18 10 - - SSW 1002,2 33
20.01.2018 09:00:00 5,1 0,8 22 12 29 16 SSW 1002,6 31
20.01.2018 08:00:00 4,9 -0,2 25 14 36 19 SW 1002,8 38
20.01.2018 07:00:00 5,1 -0,1 29 16 40 21 SW 1003,3 38
20.01.2018 06:00:00 5,0 0,4 41 22 43 23 SW 1003,5 10
20.01.2018 05:00:00 5,2 0,8 32 18 40 21 SSW 1003,8 31
20.01.2018 04:00:00 5,1 0,4 41 22 - - SW 1004,4 10
20.01.2018 03:00:00 5,3 0,5 36 19 40 21 SSW 1004,9 32
20.01.2018 02:00:00 5,4 0,5 32 18 40 21 SSW 1005,1 32
20.01.2018 01:00:00 5,6 0,8 32 18 47 25 SW 1005,3 37
20.01.2018 00:00:00 5,9 0,9 50 27 50 27 W 1005,3 10
19.01.2018 23:00:00 5,9 -0,3 43 23 54 29 W 1005,3 40
19.01.2018 22:00:00 6,0 0,9 43 23 50 27 SSW 1005,0 26
19.01.2018 21:00:00 5,9 -0,1 36 19 47 25 SW 1005,3 43
19.01.2018 20:00:00 5,5 -0,7 42 23 47 25 SW 1005,5 10
19.01.2018 19:00:00 5,5 0,5 36 19 43 23 SW 1005,6 37
19.01.2018 18:00:00 5,4 0,1 37 20 40 21 SW 1005,6 10
19.01.2018 17:00:00 5,4 0,7 36 19 43 23 SW 1005,5 40
19.01.2018 16:00:00 5,3 0,8 36 19 - - SW 1005,5 35
19.01.2018 15:00:00 5,2 0,9 32 18 40 21 SW 1005,6 28
19.01.2018 14:00:00 5,1 1,0 32 18 40 21 SW 1005,7 33
19.01.2018 13:00:00 5,2 1,5 29 16 36 19 SW 1005,8 30
19.01.2018 12:00:00 5,1 0,9 32 18 36 19 W 1005,8 10
19.01.2018 11:00:00 5,3 0,7 39 21 43 23 W 1005,9 10
19.01.2018 10:00:00 5,4 1,0 41 22 47 25 SW 1005,3 10
19.01.2018 09:00:00 5,4 1,5 46 25 50 27 W 1004,6 10
19.01.2018 08:00:00 5,5 1,5 46 25 50 27 W 1003,9 10
19.01.2018 07:00:00 5,6 1,3 48 26 50 27 W 1003,5 10
19.01.2018 06:00:00 4,9 1,6 46 25 50 27 WNW 1003,0 10
19.01.2018 05:00:00 5,7 2,1 44 24 47 25 W 1002,3 10
19.01.2018 04:00:00 5,7 1,5 41 22 47 25 W 1002,1 10
19.01.2018 03:00:00 5,9 1,8 41 22 40 21 WNW 1001,8 10
19.01.2018 02:00:00 5,9 1,7 35 19 36 19 WNW 1001,4 10
19.01.2018 01:00:00 5,9 1,7 34 18 36 19 WNW 1000,8 10
19.01.2018 00:00:00 6,0 2,1 35 19 36 19 W 1000,6 10
18.01.2018 23:00:00 6,2 2,6 31 17 36 19 WNW 1000,3 10
18.01.2018 22:00:00 6,2 1,9 29 16 32 18 W 1000,1 10
18.01.2018 21:00:00 5,1 1,8 31 17 36 19 W 1000,2 10
18.01.2018 20:00:00 5,9 1,1 35 19 36 19 W 1000,1 10
18.01.2018 19:00:00 5,9 0,9 37 20 43 23 WNW 999,7 10
18.01.2018 18:00:00 5,8 1,3 44 24 50 27 W 999,5 10
18.01.2018 17:00:00 5,8 0,6 52 28 54 29 WNW 999,0 10
18.01.2018 16:00:00 5,7 1,2 57 31 54 29 W 998,3 10
18.01.2018 15:00:00 4,4 1,8 48 26 54 29 WNW 997,5 10
18.01.2018 14:00:00 4,2 3,0 65 35 68 37 WNW 996,8 8
18.01.2018 13:00:00 6,0 1,3 68 37 72 39 NW 995,2 10
18.01.2018 12:00:00 5,6 2,2 76 41 94 51 NW 993,3 10
18.01.2018 11:00:00 5,6 2,3 102 55 130 70 NW 989,8 10
18.01.2018 10:00:00 4,7 2,9 115 62 130 70 WNW 981,0 6

tt = Température de l'air
td = dewpoint
ff = Vitesse du vent
fx = gusts
dd = Direction du vent
ppp = reduced air pressure
vv = visibility

stations d'obs. à proximité